Location: Oshawa
(43.9000°N, 78.8670°W)
Time: 02:39:44
(UTC-04:00)

Daily predictions for brighter satellites

Satellite Brightness Start Highest point End
(mag) Time Altitude Azimuth Time Altitude Azimuth Time Altitude Azimuth
CZ-2C R/B 3.0 00:05:01 10° N 00:10:26 61° WNW 00:13:20 27° SW
Cosmos 2251 Rocket 3.9 00:07:43 25° SW 00:10:47 64° WNW 00:16:06 10° NNE
ATLAS 3B R/B 2.8 00:05:57 10° NW 00:12:25 58° WSW 00:14:51 37° S
SL-8 R/B 3.6 00:08:11 10° WSW 00:13:02 90° E 00:17:53 10° ENE
SAR-Lupe-1 3.9 00:13:14 82° SW 00:13:19 83° WSW 00:16:56 10° NNW
NOSS 2-2 (C) 4.0 00:16:04 40° E 00:16:04 40° E 00:19:33 10° NE
Cosmos 1300 4.0 00:13:20 10° NNW 00:16:43 30° W 00:17:24 28° WSW
Cosmos 2315 Rocket 4.1 00:14:09 33° SSW 00:17:10 78° W 00:23:33 10° N
Cosmos 1455 2.5 00:13:44 10° N 00:17:25 51° E 00:17:31 51° E
Cosmos 1626 2.4 00:17:39 55° WSW 00:18:04 60° W 00:21:46 10° N
NOSS 3-2 (A) 4.1 00:11:24 10° NW 00:18:55 67° WSW 00:22:39 35° SSE
Cosmos 1766 Rocket 3.6 00:20:31 58° SE 00:21:04 64° E 00:25:30 10° NNE
Cosmos 1408 Rocket 3.7 00:23:59 53° ESE 00:24:26 56° E 00:28:49 10° NNE
Terra 3.8 00:22:51 15° WSW 00:24:49 19° W 00:28:12 10° NW
Cosmos 1461 3.1 00:29:00 49° SW 00:30:16 85° WNW 00:35:06 10° NNE
ATLAS 2AS CENTAUR R/B 4.2 00:25:26 10° WSW 00:32:57 44° NW 00:40:39 10° NNE
Cosmos 1151 Rocket 3.8 00:31:55 10° N 00:35:58 39° ENE 00:36:31 37° E
Cosmos 1076 Rocket 4.4 00:35:18 35° WSW 00:36:24 42° WNW 00:40:28 10° N
Cosmos 2184 Rocket 4.0 00:30:38 10° N 00:37:00 72° E 00:39:15 42° SSE
Cosmos 1992 Rocket 3.9 00:32:32 10° NNW 00:37:47 84° WSW 00:39:00 54° S
H-2A R/B 2.5 00:37:18 44° E 00:37:50 47° ENE 00:41:47 10° N
Cosmos 2278 Rocket 2.7 00:35:25 24° SW 00:38:47 55° WNW 00:44:24 10° NNE
CZ-4B R/B 3.8 00:34:09 10° NNE 00:39:20 54° E 00:40:22 46° SE
Okean 3 Rocket 4.3 00:39:18 37° WSW 00:40:24 45° WNW 00:44:38 10° N
NOSS 3-2 (C) 4.1 00:33:54 10° NW 00:41:25 66° WSW 00:44:52 37° S
BREEZE-M DEB (TANK) 4.0 00:41:14 10° WNW 00:44:20 28° NNW 00:46:21 10° NE
Cosmos 2228 Rocket 3.6 00:41:21 10° N 00:45:43 48° ENE 00:46:22 44° ESE
Cosmos 1441 Rocket 3.2 00:43:56 10° N 00:47:41 71° ENE 00:47:41 71° ENE
Meteor 2-21 4.5 00:44:58 10° N 00:51:02 69° E 00:53:01 43° SSE
RESURS DK-1 2.4 00:52:10 66° E 00:52:10 66° E 00:56:08 10° NNE
Cosmos 405 Rocket 2.8 00:50:18 10° N 00:53:47 62° ENE 00:53:47 62° ENE
deb Chang Zheng 4 4.3 00:49:54 10° NNE 00:54:03 39° E 00:54:10 39° ESE
Mayak -1.2 00:53:47 10° N 00:57:56 66° WNW 00:58:24 60° WSW
Cosmos 1869 3.8 00:54:03 10° N 00:57:56 48° ENE 00:58:07 48° E
Meteor 1-27 4.5 00:53:16 10° NNW 00:59:01 61° W 01:00:43 44° SSW
Lacrosse 5 4.1 00:55:44 10° WNW 00:59:56 26° NNW 01:04:10 10° NE
Cosmos 1703 4.0 00:59:44 40° W 01:00:05 41° WNW 01:03:48 10° N
Cosmos 407 Rocket 3.5 01:02:56 53° SE 01:03:40 59° ESE 01:08:45 10° NNE
NOSS 3-4 (A) 4.1 01:04:39 17° WSW 01:09:21 55° NW 01:15:44 10° NNE
NOSS 3-4 (C) 4.0 01:04:47 17° WSW 01:09:26 55° NW 01:15:50 10° NNE
NOSS 2-2 (E) 4.2 01:09:07 35° W 01:10:21 48° NW 01:14:50 10° NNE
Cosmos 2369 Rocket 3.6 01:10:58 23° ESE 01:11:50 24° ESE 01:16:14 10° NE
Cosmos 2151 2.9 01:12:07 68° WSW 01:12:27 72° W 01:16:43 10° N
Cosmos 1190 Rocket 3.9 01:11:37 57° SSE 01:12:36 73° ESE 01:17:48 10° NNE
Cosmos 1743 Rocket 3.4 01:14:34 74° SSW 01:14:55 84° W 01:19:22 10° N
Cosmos 1328 Rocket 3.9 01:11:23 10° NNW 01:15:36 51° W 01:15:52 50° WSW
Cosmos 2297 3.8 01:15:00 40° SW 01:17:05 70° WNW 01:22:49 10° NNE
BREEZE M DEB (TANK) 3.8 01:03:18 10° WSW 01:19:59 87° SSE 01:24:08 10° ENE
CENTAUR R/B 3.1 01:16:50 10° NW 01:24:47 70° WSW 01:28:42 36° SSE
Cosmos 2082 Rocket 2.7 01:20:06 10° NW 01:25:28 43° WSW 01:26:25 40° SW
SL-27 R/B 4.1 01:23:02 10° NW 01:25:26 26° WNW 01:25:26 26° WNW
USA 234 3.1 01:21:13 10° NE 01:27:48 83° SE 01:31:12 31° SW
CZ-4C R/B 4.4 01:28:06 34° W 01:28:06 34° W 01:31:34 10° NNW
Meteor 2-10 Rocket 3.4 01:23:02 10° NNW 01:28:08 77° W 01:29:12 56° SSW
Nadezhda 1 Rocket 4.2 01:26:00 40° SSW 01:28:19 68° W 01:34:45 10° N
ADEOS Rocket 3.5 01:24:20 10° N 01:29:56 52° WNW 01:32:42 30° SW
Meteor 2-16 Rocket 4.4 01:24:26 10° N 01:30:37 89° W 01:32:38 46° S
ATLAS 5 CENTAUR R/B 2.7 01:33:09 25° W 01:35:20 42° NW 01:40:08 10° NNE
Sich 1 4.2 01:35:11 30° ESE 01:35:48 31° E 01:39:39 10° NNE
Cosmos 1833 Rocket 3.7 01:32:00 10° NW 01:36:50 30° WSW 01:37:29 29° WSW
ALOS 2 4.0 01:36:59 25° W 01:37:06 25° W 01:40:45 10° NW
Cosmos 2058 4.3 01:39:04 27° W 01:39:43 28° WNW 01:43:20 10° NNW
Cosmos 1500 Rocket 3.8 01:41:13 50° WSW 01:41:43 53° WNW 01:45:58 10° N
BREEZE-M DEB (TANK) 3.4 01:37:44 10° WSW 01:42:29 60° NNW 01:46:00 10° ENE
Cosmos 1933 4.2 01:42:48 10° N 01:46:38 41° ENE 01:47:17 38° ESE
Cosmos 1707 Rocket 4.3 01:42:54 10° N 01:47:10 46° ENE 01:48:10 39° ESE
In-Cosmos 22 Rocket 4.1 01:45:59 49° SSE 01:47:18 69° E 01:52:38 10° NNE
Cosmos 1023 Rocket 4.3 01:47:19 57° S 01:48:21 80° ESE 01:53:28 10° NNE
Cosmos 1633 Rocket 4.1 01:52:26 32° ESE 01:53:17 35° E 01:57:18 10° NNE
Cosmos 371 Rocket 3.2 01:48:32 10° NNW 01:53:21 69° WSW 01:54:04 59° SSW
PSLV R/B 3.8 01:54:52 10° NNE 01:59:36 69° ESE 02:00:32 53° SSE
Cosmos 1943 Rocket 2.6 02:04:49 39° SSE 02:06:18 49° ESE 02:11:39 10° NE
Cosmos 1408 4.2 02:08:29 24° ESE 02:09:00 25° E 02:12:06 10° NE
Cosmos 1892 2.5 02:10:56 81° SE 02:11:02 83° E 02:14:50 10° N
H-2A R/B 4.1 02:14:25 15° W 02:14:25 15° W 02:16:29 10° WNW
Cosmos 1666 Rocket 3.5 02:14:25 58° SSE 02:15:09 74° E 02:19:30 10° NNE
Landsat 5 3.7 02:18:08 45° ESE 02:18:58 57° ENE 02:22:45 10° N
CZ-2D R/B 3.9 02:15:19 10° NE 02:19:24 22° E 02:22:15 15° SE
COSMOS 2487 3.5 02:17:57 10° NW 02:20:33 35° WNW 02:20:33 35° WNW
Cosmos 1741 Rocket 4.1 02:19:49 44° S 02:21:25 66° ESE 02:26:39 10° NNE
CZ-4B R/B 1.8 02:25:33 49° E 02:25:40 49° ENE 02:28:41 10° N
GP-B 4.1 02:25:40 10° NNE 02:29:51 39° E 02:31:40 26° SE
Cosmos 2181 Rocket 4.4 02:30:27 33° SW 02:33:04 52° WNW 02:39:12 10° N
Cosmos 2242 Rocket 4.1 02:29:47 10° N 02:34:13 56° E 02:36:04 32° SE
Meteor 2-3 Rocket 3.8 02:33:47 37° S 02:36:10 77° E 02:41:58 10° NNE
CZ-4C R/B 3.4 02:36:37 51° W 02:36:37 51° W 02:40:08 10° NNW
Cosmos 1140 Rocket 4.3 02:35:37 28° WSW 02:37:38 39° WNW 02:42:28 10° N
Cosmos 468 Rocket 4.3 02:34:51 10° NNW 02:39:58 63° ENE 02:43:28 20° SE
MOS 1 Rocket 4.3 02:35:43 10° N 02:40:23 38° WNW 02:42:03 29° WSW
BREEZE-M DEB (TANK) 3.7 02:38:13 31° SW 02:41:10 54° SSE 02:44:11 10° ENE
Lacrosse 4 Rocket 3.1 02:47:55 21° SE 02:49:20 25° ESE 02:52:58 10° NE
Spot 2 4.0 02:49:06 10° NNE 02:53:33 84° WNW 02:54:50 45° SSW
Cosmos 2218 Rocket 4.4 02:48:07 10° NNW 02:53:59 48° W 02:56:32 31° SW
Fregat R/B Cluster 11 4.4 02:54:02 32° SE 02:54:20 33° ESE 02:57:28 10° NE
Resurs 1-4 Rocket 2.8 02:50:15 10° NNE 02:55:23 46° E 02:58:24 23° SSE
Cosmos 2369 Rocket 2.6 02:52:45 29° WSW 02:55:27 53° WNW 03:01:00 10° NNE
AQUA 4.4 02:51:44 10° NNE 02:56:22 49° E 02:58:40 27° SSE
Cosmos 1570 Rocket 4.1 02:58:04 10° NNW 03:03:16 60° WSW 03:05:36 32° S
USA 234 4.4 03:04:26 10° NE 03:10:28 41° NNW 03:16:30 10° W
Cosmos 1862 Rocket 3.7 03:09:00 10° NNW 03:13:25 59° W 03:15:07 35° SSW
Cosmos 1703 Rocket 4.2 03:09:48 10° N 03:14:08 52° ENE 03:17:34 15° SSE
Cosmos 1606 2.8 03:15:18 10° NNW 03:19:02 54° W 03:20:07 39° SSW
SL-16 R/B 2.5 03:15:15 17° SSE 03:20:07 82° WSW 03:26:19 10° NNW
PSLV R/B 3.4 03:22:50 43° SSE 03:22:50 43° SSE 03:25:20 10° E
UNK 3.7 03:19:44 24° S 03:22:33 79° WSW 03:27:15 10° NNW
SL-24 DEB 4.2 03:22:34 23° S 03:25:27 88° E 03:30:07 10° N
Cosmos 1825 2.8 03:24:54 32° WSW 03:25:59 40° WNW 03:29:35 10° N
Okean 1-7 3.6 03:27:02 10° N 03:31:25 58° E 03:35:30 11° SSE
Cosmos 1689 Rocket 3.9 03:33:12 20° W 03:33:12 20° W 03:35:12 10° NW
CBERS-1 4.1 03:28:09 10° N 03:33:16 68° WNW 03:36:19 25° SSW
Cosmos 1535 Rocket 4.4 03:28:14 10° N 03:34:23 90° WSW 03:40:00 13° S
ARIANE 5 R/B 2.8 03:30:04 10° NNE 03:35:01 59° E 03:38:45 17° S
Cosmos 1470 Rocket 4.5 03:34:08 25° WSW 03:36:01 35° WNW 03:40:10 10° N
Cosmos 1833 4.5 03:32:06 10° NW 03:37:27 47° WSW 03:41:13 19° S
Meteor 2-6 Rocket 4.1 03:32:04 10° NNW 03:37:27 72° W 03:41:39 17° S
Nadezhda 3 Rocket 4.3 03:34:21 23° SSW 03:38:19 56° WNW 03:44:35 10° N
Cosmos 1605 Rocket 4.5 03:32:36 10° N 03:38:38 60° E 03:44:39 10° SSE
Cosmos 1656 Rocket 3.7 03:35:19 24° SW 03:38:49 73° WNW 03:44:29 10° NNE
SL-8 R/B 4.2 03:34:08 10° WNW 03:38:56 63° NNE 03:43:43 10° E
Cosmos 1437 Rocket 3.4 03:38:22 18° S 03:41:13 56° E 03:45:15 10° NNE
IRS-1C 4.1 03:36:00 10° NNE 03:41:22 79° WNW 03:44:59 21° SSW
BREEZE-M DEB (TANK) 3.6 03:33:48 10° W 03:41:39 68° N 03:44:49 10° E
Cosmos 1408 4.3 03:42:52 18° W 03:44:03 21° WNW 03:46:58 10° NNW
H-2A R/B 2.4 03:40:39 10° N 03:44:40 63° WNW 03:46:46 25° SSW
Cosmos 1782 3.5 03:41:47 10° NNW 03:45:26 36° W 03:46:59 25° SW
Cosmos 1763 Rocket 3.6 03:41:15 10° NNW 03:46:11 53° WSW 03:50:06 16° S
NPP 4.1 03:41:37 10° N 03:46:47 48° WNW 03:50:15 20° SW
Cosmos 1943 Rocket 3.5 03:46:20 13° WSW 03:50:17 28° NW 03:55:03 10° N
Meteor 1-10 Rocket 4.4 03:45:48 10° NNW 03:51:14 55° W 03:55:39 16° SSW
ADEOS 4.5 03:46:20 10° NNE 03:51:21 45° E 03:56:20 10° S
Cosmos 1867 3.6 03:50:53 21° SSW 03:54:39 87° SE 04:00:09 10° NE
Meteor 1-27 Rocket 3.8 03:49:01 10° N 03:54:50 86° W 04:00:43 10° S
PSLV R/B 4.0 03:51:55 15° S 03:55:22 67° WSW 03:59:35 10° NNW
SL-08 R/B 4.0 03:55:04 20° SSW 03:57:48 37° W 04:02:10 10° NNW
Cosmos 1934 Rocket 4.0 03:52:03 10° NNW 03:58:22 68° W 04:04:32 10° S
Cosmos 1814 Rocket 4.3 03:54:08 10° NNW 03:59:11 46° WSW 04:03:41 12° S
CZ-2D R/B 2.5 03:54:36 10° N 03:59:43 51° WNW 04:03:34 18° SW
Cosmos 292 Rocket 4.0 03:55:59 10° NNW 04:00:39 51° WSW 04:05:13 11° S
Cosmos 2219 3.3 03:58:26 10° NNW 04:04:08 79° ENE 04:09:46 10° SSE
BREEZE-M R/B 4.4 04:00:43 14° SSW 04:05:01 24° SSE 04:08:01 10° E
Cosmos 1818 4.0 04:02:15 10° NW 04:07:20 39° WSW 04:12:22 10° S
Spot 4 Rocket 4.1 04:02:47 10° N 04:07:54 69° WNW 04:12:11 15° SSW
Cosmos 540 Rocket 3.4 04:03:18 10° NNW 04:08:28 83° WSW 04:13:34 10° SSE
ADEOS II 2.9 04:04:01 10° NNE 04:09:08 49° E 04:14:11 10° S
BREEZE-M TANK 2.0 04:10:34 10° W 04:13:45 72° N 04:16:38 10° E
Cosmos 841 Rocket 3.9 04:09:45 10° NNW 04:14:40 43° WSW 04:19:32 10° S
MOZ.5/SAFIR/RUBIN 5/SL-8 4.4 04:12:01 15° SSW 04:15:30 36° W 04:19:50 10° NNW
IRS-1D 4.2 04:14:30 10° N 04:19:19 41° WNW 04:23:24 13° SW
Cosmos 1862 4.2 04:17:17 16° SW 04:19:55 34° WNW 04:23:34 10° N
Cosmos 2221 Rocket 3.7 04:16:03 10° NNW 04:20:23 56° W 04:24:44 10° S
Genesis I 3.9 04:18:07 10° NNW 04:22:11 61° NE 04:26:12 10° SE
Meteor 1-4 Rocket 2.6 04:22:01 14° SSW 04:25:04 63° WNW 04:28:44 10° N
COSMOS 2455 2.9 04:20:03 10° NW 04:25:55 56° WSW 04:31:45 10° S
Cosmos 1184 Rocket 3.3 04:23:21 10° NNW 04:26:26 39° W 04:29:22 11° SSW
Lacrosse 4 Rocket 2.5 04:24:15 13° WSW 04:27:51 37° NW 04:32:02 10° NNE
Lacrosse 5 4.0 04:24:17 10° NW 04:28:48 31° NNE 04:33:18 10° E
Cosmos 1727 Rocket 4.0 04:25:40 10° SSW 04:31:52 78° W 04:38:09 10° N
Cosmos 1869 Rocket 4.5 04:30:22 13° SW 04:33:48 32° WNW 04:37:46 10° N
Cosmos 2297 Rocket 3.0 04:28:33 10° NNW 04:34:08 56° ENE 04:39:40 10° SE
Resurs 1-4 Rocket 3.4 04:30:37 10° N 04:34:57 26° WNW 04:39:16 10° WSW
Cosmos 2173 Rocket 4.5 04:29:28 10° N 04:35:33 63° E 04:41:34 10° SSE
CZ-2D R/B 3.7 04:33:28 10° N 04:37:41 56° WNW 04:41:46 10° SSW
Cosmos 1354 Rocket 4.0 04:32:58 10° SSW 04:38:12 78° WNW 04:43:28 10° NNE
Cosmos 2227 Rocket 2.6 04:36:31 10° NNW 04:42:13 71° ENE 04:47:52 10° SSE
UNKNOWN OBJECT B 3.4 04:41:15 10° N 04:45:02 45° WNW 04:48:53 10° SW
SAR-Lupe-2 4.4 04:43:04 10° SSW 04:46:16 31° W 04:49:30 10° NNW
ATLAS CENTAUR R/B 2.1 04:42:56 10° S 04:46:29 43° ESE 04:50:17 10° NE
SL-19 R/B 4.3 04:44:32 10° SSE 04:47:49 75° ENE 04:51:39 10° NNW
Meteor 1-20 Rocket 4.5 04:45:32 10° S 04:51:06 75° E 04:56:51 10° NNE
USA 229 DEB 3.9 04:44:05 10° NW 04:51:11 61° WSW 04:58:26 10° SSE
USA 229 3.9 04:44:12 10° NW 04:51:18 62° WSW 04:58:33 10° SSE
NOSS 3-1 (A) 4.5 04:44:29 10° NW 04:52:03 72° NE 05:00:31 10° SE
Meteor 1-14 Rocket 4.4 04:47:16 10° S 04:52:55 83° E 04:58:46 10° NNE
Milstar 3 Cent rocket 4.4 04:43:02 10° WSW 04:55:29 32° S 05:02:17 10° SE
Meteor 1-18 Rocket 4.4 04:50:47 10° N 04:56:31 84° ENE 05:02:07 10° SSE
Cosmos 389 Rocket 2.7 04:53:06 10° SSW 04:56:41 60° WNW 05:00:18 10° N
Meteor 2-12 Rocket 4.5 04:52:13 10° N 04:58:23 83° W 05:04:29 10° S
PSLV R/B 3.6 04:55:57 10° W 04:58:43 36° SSW 05:01:28 10° ESE
SeaSat 1 3.2 04:54:56 10° SE 04:59:46 61° ENE 05:04:39 10° NNW
Cosmos 2016 Rocket 4.4 04:57:08 10° N 05:03:32 74° E 05:09:53 10° SSE
